Annapolis Naval Academy, MD

11:48 AM EST on December 09, 2019 (GMT -0500)
Annapolis Naval Academy

Weather History for KNAK - November, 2019

Change the Weather History Date:

Friday, November 15, 2019

  Actual Average (WUND) Record (WUND)
Temperature  
Mean Temperature 43 °F -  
Max Temperature 51 °F - - (-1)
Min Temperature 35 °F - - (-1)
Degree Days  
Heating Degree Days 22    
Moisture  
Dew Point 32 °F    
Average Humidity 65    
Maximum Humidity 82    
Minimum Humidity 38    
Precipitation  
Precipitation 0.00 in - - ()
Sea Level Pressure  
Sea Level Pressure 30.25 in    
Wind  
Wind Speed 3 mph ()    
Max Wind Speed 9 mph    
Max Gust Speed -    
Visibility 10.0 miles    
Events      
Averages and records for this station are not official NWS values.
T = Trace of Precipitation, MM = Missing Value Source: Averaged Metar Reports

Daily Weather History Graph

Daily Weather History Graph

Search for Another Location

Airport or City:

Astronomy

Nov. 15, 2019 Rise Set
Actual Time 6:48 AM EST 4:52 PM EST
Civil Twilight 6:19 AM EST 5:20 PM EST
Nautical Twilight 5:47 AM EST 5:52 PM EST
Astronomical Twilight 5:16 AM EST 6:24 PM EST
Moon 7:26 PM EST (11/15) 9:41 AM EST (11/15)
Length of Visible Light 11h 00m
Length of Day
10h 03m
Waning Gibbous, 90% of the Moon is Illuminated
Nov 15
Waning Gibbous
Nov 19
Last Quarter
Nov 26
New
Dec 4
First Quarter
Dec 12
Full

Hourly Weather History & Observations

Time (EST) Temp. Windchill Dew Point Humidity Pressure Visibility Wind Dir Wind Speed Gust Speed Precip Events Conditions
12:54 AM 39.9 °F - 33.1 °F 77% 30.30 in 10.0 mi Calm Calm - N/A   Overcast
1:54 AM 39.9 °F 37.8 °F 33.1 °F 77% 30.29 in 10.0 mi NW 3.5 mph - N/A   Mostly Cloudy
2:54 AM 39.0 °F 34.8 °F 30.0 °F 70% 30.29 in 10.0 mi NNW 5.8 mph - N/A   Mostly Cloudy
3:54 AM 37.0 °F - 32.0 °F 82% 30.27 in 10.0 mi Calm Calm - N/A   Partly Cloudy
4:54 AM 36.0 °F - 30.0 °F 79% 30.28 in 10.0 mi Calm Calm - N/A   Clear
5:54 AM 35.1 °F - 30.0 °F 82% 30.28 in 10.0 mi Calm Calm - N/A   Clear
7:54 AM 36.0 °F - 28.9 °F 76% 30.31 in 10.0 mi Calm Calm - N/A   Clear
8:54 AM 39.0 °F 36.8 °F 33.1 °F 79% 30.30 in 10.0 mi WNW 3.5 mph - N/A   Clear
10:54 AM 48.0 °F - 26.1 °F 42% 30.28 in 10.0 mi NW 5.8 mph - N/A   Clear
11:54 AM 51.1 °F - 26.1 °F 38% 30.25 in 10.0 mi NW 5.8 mph - N/A   Clear
12:54 PM 50.0 °F - 34.0 °F 54% 30.22 in 10.0 mi SE 9.2 mph - N/A   Clear
1:54 PM 50.0 °F - 33.1 °F 52% 30.20 in 10.0 mi SE 8.1 mph - N/A   Clear
2:54 PM 50.0 °F - 30.0 °F 46% 30.20 in 10.0 mi SE 3.5 mph - N/A   Clear
3:54 PM 48.9 °F - 30.0 °F 48% 30.19 in 10.0 mi SE 3.5 mph - N/A   Clear
4:54 PM 46.9 °F - 30.0 °F 52% 30.20 in 10.0 mi Calm Calm - N/A   Clear
5:54 PM 45.0 °F - 33.1 °F 63% 30.20 in 10.0 mi Calm Calm - N/A   Clear
6:54 PM 43.0 °F - 32.0 °F 65% 30.22 in 10.0 mi Calm Calm - N/A   Clear
8:54 PM 44.1 °F 42.5 °F 37.0 °F 76% 30.22 in 10.0 mi NNW 3.5 mph - N/A   Clear
9:54 PM 43.0 °F - 36.0 °F 76% 30.22 in 10.0 mi Calm Calm - N/A   Clear
10:54 PM 44.1 °F 39.0 °F 34.0 °F 68% 30.23 in 10.0 mi NNW 9.2 mph - N/A   Clear
11:54 PM 45.0 °F 40.1 °F 30.0 °F 56% 30.23 in 10.0 mi North 9.2 mph - N/A   Clear